Regional Weather Roundup
Issued by NWS

Home | Current Version | Previous Version | Graphics & Text | Print | Product List | Glossary Off
Versions: 1 2 3 4 5 6 7 8 9 10 11 12 13 14 15 16 17 18 19 20 21 22 23 24 25 26 27 28 29 30 31 32 33 34 35 36 37 38 39 40 41 42 43 44 45 46 47 48 49 50

000
ASUS43 KMKX 251159
RWRWI

WISCONSIN REGIONAL WEATHER ROUNDUP
NATIONAL WEATHER SERVICE MILWAUKEE/SULLIVAN WI
600 AM CST SUN FEB 25 2018

NOTE: "FAIR" INDICATES FEW OR NO CLOUDS BELOW 12,000 FEET WITH NO
SIGNIFICANT WEATHER AND/OR OBSTRUCTIONS TO VISIBILITY.

WIZ001-002-006>008-014>016-023>028-251300-
NORTHWEST WISCONSIN

CITY           SKY/WX    TMP DP  RH WIND       PRES   REMARKS
SUPERIOR ARPT  CLOUDY    25  20  80 W23G29    29.37R WCI  10
6HR MIN TEMP:  25; 6HR MAX TEMP:  29; 6HR PCP:  0.05;

ASHLAND        CLOUDY    26  21  81 W24G32    29.34R WCI  11
6HR MIN TEMP:  26; 6HR MAX TEMP:  28; 6HR PCP: TRACE;

HAYWARD        CLOUDY    25  20  81 SW10G24   29.40R WCI  15
6HR MIN TEMP:  25; 6HR MAX TEMP:  30; 6HR PCP:  0.02;

SIREN          CLOUDY    23  19  86 W18       29.48R WCI   8
CUMBERLAND     CLOUDY    19  18  93 W20G26    29.47R FOG     WCI   4
RICE LAKE      CLOUDY    21  18  90 SW14G20   29.51R FOG     WCI   8
CHETEK         CLOUDY    20  17  87 SW12G25   29.51R WCI   8
LADYSMITH      CLOUDY    23  20  87 SW17G23   29.46R FOG     WCI  10
EAU CLAIRE     NOT AVBL
MENOMONIE      CLOUDY    19  16  86 SW16G25   29.58R FOG     WCI   5
6HR MIN TEMP:  19; 6HR MAX TEMP:  32;

NEW RICHMOND   CLOUDY    17  14  86 W15       29.56R WCI   3
OSCEOLA        CLOUDY    19  19 100 SW16      29.58R WCI   4
$$

WIZ003>005-009-010-017-018-251300-
NORTH CENTRAL WISCONSIN

CITY           SKY/WX    TMP DP  RH WIND       PRES   REMARKS
MANITOWISH WTR LGT SNOW  27  27 100 SW16G24   29.28R WCI  14
ARBOR VITAE    LGT SNOW  29  26  89 W17       29.30R WCI  17
WOODRUFF       LGT SNOW  29  26  89 W17       29.30R WCI  17
RHINELANDER    LGT SNOW  26  22  84 W18G30    29.34R FOG     WCI  13
6HR MIN TEMP:  26; 6HR MAX TEMP:  31; 6HR PCP:  0.10;

EAGLE RIVER    LGT SNOW  27  24  87 W21G39    29.29R WCI  14
6HR MIN TEMP:  27; 6HR MAX TEMP:  30;

LAND O LAKES   FLURRIES  30  26  87 W12G20    29.26R WCI  20
PHILLIPS       FLURRIES  24  22  91 SW18      29.37R WCI  10
6HR MIN TEMP:  24; 6HR MAX TEMP:  30; 6HR PCP:  0.02;

TOMAHAWK       LGT SNOW  25  21  86 W13G20    29.38R WCI  13
MEDFORD        CLOUDY    19  16  88 W16G29    29.44R FOG     WCI   5
MERRILL        CLOUDY    22  19  87 W24G30    29.44R FOG     WCI   6
6HR MIN TEMP:  22; 6HR MAX TEMP:  32; 6HR PCP:  0.07;

$$

WIZ029-030-035-036-043>047-251300-
CENTRAL WISCONSIN

CITY           SKY/WX    TMP DP  RH WIND       PRES   REMARKS
WAUSAU         CLOUDY    22  18  85 W23G35    29.45R FOG     WCI   6
6HR MIN TEMP:  22; 6HR MAX TEMP:  32; 6HR PCP:  0.08;

MOSINEE        LGT SNOW  21  19  93 SW22G29   29.49R WCI   5
MARSHFIELD     CLOUDY    22  18  85 W21G30    29.50R WCI   6
6HR MIN TEMP:  22; 6HR MAX TEMP:  32; 6HR PCP:  0.01;

STEVENS POINT  CLOUDY    22  19  91 SW13      29.51R WCI  10
WAUPACA        CLOUDY    28  22  77 W24G35    29.53R WCI  14
WAUTOMA        CLOUDY    25  20  81 W26G36    29.58R WCI   9
6HR MIN TEMP:  25; 6HR MAX TEMP:  34;

WISC RAPIDS    CLOUDY    23  17  78 MISG      29.57R
6HR MIN TEMP:  23; 6HR MAX TEMP:  33; 6HR PCP:  0.02;

CAMP DOUGLAS   CLOUDY    24  19  81 W21G35    29.62R WCI   9
6HR MIN TEMP:  24; 6HR MAX TEMP:  34; 6HR PCP:  0.01;

$$

WIZ011>013-019>022-031-037>040-048>050-251300-
NORTHEAST WISCONSIN

CITY           SKY/WX    TMP DP  RH WIND       PRES   REMARKS
ANTIGO         MIX PCPN  23  20  90 W24G38    29.39R WCI   7
SHAWANO        CLOUDY    30  25  80 W16G26    29.44R WCI  19
OCONTO         CLOUDY    31  26  81 W23G36    29.41R WCI  18
STURGEON BAY   CLOUDY    30  26  85 SW26G35   29.40R WCI  16
6HR MIN TEMP:  30; 6HR MAX TEMP:  36; 6HR PCP:  0.34;

GREEN BAY      CLOUDY    29  21  72 W28G38    29.49R WCI  14
6HR MIN TEMP:  29; 6HR MAX TEMP:  36; 6HR PCP:  0.21;

MANITOWOC      CLOUDY    30  22  72 W28G41    29.50R WCI  15
6HR MIN TEMP:  30; 6HR MAX TEMP:  38; 6HR PCP:  0.16;

APPLETON       CLOUDY    27  19  74 W30G38    29.51R WCI  10
CLINTONVILLE   CLOUDY    27  21  79 W25G32    29.50R WCI  11
6HR MIN TEMP:  27; 6HR MAX TEMP:  34; 6HR PCP:  0.08;

OSHKOSH        CLOUDY    27  19  72 W18G35    29.55R WCI  14
6HR MIN TEMP:  27; 6HR MAX TEMP:  37; 6HR PCP:  0.04;

$$

WIZ032>034-041-042-053>061-251300-
SOUTHWEST WISCONSIN

CITY           SKY/WX    TMP DP  RH WIND       PRES   REMARKS
LA CROSSE      CLOUDY    23  16  74 SW9G20    29.68R WCI  13
6HR MIN TEMP:  23; 6HR MAX TEMP:  35; 6HR PCP: TRACE;

SPARTA         CLOUDY    22  19  85 W12G23    29.65R WCI  11
VIROQUA        CLOUDY    19  18  95 W15G24    29.65R WCI   5
BOSCOBEL       CLOUDY    25  17  72 SW20G26   29.74R WCI  11
6HR MIN TEMP:  25; 6HR MAX TEMP:  34;

PRAIRIE DU CHI CLOUDY    22  15  74 W18       29.75R WCI   7
PLATTEVILLE    MOCLDY    27  23  85 W18G31    29.71S WCI  14
$$

WIZ056-057-062-063-064-067-068-251300-
SOUTH CENTRAL WISCONSIN

CITY           SKY/WX    TMP DP  RH WIND       PRES   REMARKS
REEDSBURG      CLOUDY    25  19  76 W22G31    29.63R WCI  11
BARABOO/DELLS  CLOUDY    26  19  76 W15G26    29.62R WCI  14
LONE ROCK      NOT AVBL
MINERAL POINT  FAIR      28  27  93 W20G29    29.67R WCI  15
MADISON        MOCLDY    28  21  75 W10G23    29.66R WCI  19
6HR MIN TEMP:  28; 6HR MAX TEMP:  38; 6HR PCP: TRACE;

MIDDLETON      CLOUDY    29  23  78 W24       29.65R WCI  15
WATERTOWN      CLOUDY    29  23  78 W21G30    29.63R WCI  16
MONROE         MOCLDY    30  23  74 W29G40    29.68R WCI  15
JANESVILLE     CLOUDY    32  28  86 W15       29.68R WCI  22
$$

WIZ051-052-058>065-066-070>072-251300-
SOUTHEAST WISCONSIN

CITY           SKY/WX    TMP DP  RH WIND       PRES   REMARKS
MILWAUKEE      MOCLDY    33  23  66 W20G33    29.64R WCI  21
6HR MIN TEMP:  32; 6HR MAX TEMP:  42; 6HR PCP:  0.15;

WAUKESHA       CLOUDY    28  21  74 W23G31    29.63R WCI  14
MILWAUKEE/TIMM CLOUDY    30  21  69 W29G35    29.63R WCI  15
RACINE         CLOUDY    32  24  72 W22G38    29.66R WCI  19
6HR MIN TEMP:  32; 6HR MAX TEMP:  43; 6HR PCP:  0.08;

BURLINGTON     CLOUDY    32  23  71 W16G31    29.67R WCI  21
KENOSHA        CLOUDY    33  24  69 W23G39    29.67R WCI  21
6HR MIN TEMP:  33; 6HR MAX TEMP:  45; 6HR PCP:  0.09;

FOND DU LAC    CLOUDY    28  19  69 W20G30    29.58R WCI  15
6HR MIN TEMP:  28; 6HR MAX TEMP:  38; 6HR PCP:  0.03;

SHEBOYGAN      CLOUDY    29  23  78 W30G39    29.55R WCI  13
6HR MIN TEMP:  29; 6HR MAX TEMP:  38; 6HR PCP:  0.08;

WEST BEND      CLOUDY    30  23  74 W25G43    29.58R WCI  16
JUNEAU         CLOUDY    27  22  79 SW30G37   29.62R WCI  11
$$

LSZ147-162-251300-
LAKE SUPERIOR

STATION/POSITION TIME  TEMP    WIND        PRES    WAVE
                       AIR SEA DIR/SP/G            HT/PER
                 (UTC) (F)     (DEG/KT/KT) (MB)    (FT/S)
DEVILS ISLAND    1100   29     230/ 11/ 13  991.5F
SAXON HARBOR     1130   29     230/ 10/ 22  992.6R
$$

LMZ867-665-643>646-251300-
LAKE MICHIGAN

STATION/POSITION TIME  TEMP    WIND        PRES    WAVE
                       AIR SEA DIR/SP/G            HT/PER
                 (UTC) (F)     (DEG/KT/KT) (MB)    (FT/S)
KEWAUNEE LAKESHO 1130   33     250/ 19/ 27  996.1R
SHEBOYGAN LAKESH 1100   34     250/ 36/ 42  999.0R
PORT WASHINGTON  1130   31     260/ 19/ 37 1002.7R
KENOSHA   LAKESH 1100   33     260/ 30/ 37 1004.7
$$

TC  - TEMPERATURE IN CELSIUS
VSB - VISIBILITY IN STATUTE MILES
WCI - WIND CHILL INDEX
HX  - HEAT INDEX





USA.gov is the U.S. government's official web portal to all federal, state and local government web resources and services.